![]() |
EMODnet Physics ERDDAP
Easier access to scientific data |
log in|
Brought to you by EMODnet Physics |
| Dataset Title: | NDBC - Collection of dew point temperature (DEWT) TimeSeries - IN SITU MultiPointTimeSeriesObservation
|
| Institution: | NDBC (Dataset ID: TS_DEWT_NDBC) |
| Information: | Summary
| License
| FGDC
| ISO 19115
| Metadata
| Background
| Subset
| Data Access Form
| Make a graph
|
| Name | Last modified | Size | Description | |
|---|---|---|---|---|
| Parent Directory | - | - | ||
| 46017_TS_DEWT_011982.nc | 26-Oct-2024 22:41 | 449343 | ||
| 46017_TS_DEWT_011983.nc | 26-Oct-2024 22:41 | 448626 | ||
| 46017_TS_DEWT_011984.nc | 26-Oct-2024 22:41 | 449936 | ||
| 46017_TS_DEWT_011985.nc | 26-Oct-2024 22:41 | 448820 | ||
| 46017_TS_DEWT_011986.nc | 26-Oct-2024 22:41 | 449638 | ||
| 46017_TS_DEWT_011987.nc | 26-Oct-2024 22:41 | 438125 | ||
| 46017_TS_DEWT_011988.nc | 26-Oct-2024 22:42 | 448942 | ||
| 46017_TS_DEWT_021982.nc | 26-Oct-2024 22:42 | 449980 | ||
| 46017_TS_DEWT_021984.nc | 26-Oct-2024 22:42 | 437283 | ||
| 46017_TS_DEWT_021985.nc | 26-Oct-2024 22:42 | 448178 | ||
| 46017_TS_DEWT_021986.nc | 26-Oct-2024 22:42 | 449069 | ||
| 46017_TS_DEWT_021987.nc | 26-Oct-2024 22:42 | 448969 | ||
| 46017_TS_DEWT_021988.nc | 26-Oct-2024 22:42 | 449107 | ||
| 46017_TS_DEWT_031982.nc | 26-Oct-2024 22:42 | 448998 | ||
| 46017_TS_DEWT_031983.nc | 26-Oct-2024 22:42 | 450143 | ||
| 46017_TS_DEWT_031984.nc | 26-Oct-2024 22:42 | 449138 | ||
| 46017_TS_DEWT_031985.nc | 26-Oct-2024 22:42 | 449655 | ||
| 46017_TS_DEWT_031986.nc | 26-Oct-2024 22:42 | 1109752 | ||
| 46017_TS_DEWT_031987.nc | 26-Oct-2024 22:42 | 1110675 | ||
| 46017_TS_DEWT_031988.nc | 26-Oct-2024 22:42 | 1110674 | ||
| 46017_TS_DEWT_041982.nc | 26-Oct-2024 22:42 | 450120 | ||
| 46017_TS_DEWT_041983.nc | 26-Oct-2024 22:42 | 450603 | ||
| 46017_TS_DEWT_041984.nc | 26-Oct-2024 22:42 | 449552 | ||
| 46017_TS_DEWT_041985.nc | 26-Oct-2024 22:42 | 450246 | ||
| 46017_TS_DEWT_041986.nc | 26-Oct-2024 22:42 | 450172 | ||
| 46017_TS_DEWT_041987.nc | 26-Oct-2024 22:42 | 449456 | ||
| 46017_TS_DEWT_041988.nc | 26-Oct-2024 22:42 | 450802 | ||
| 46017_TS_DEWT_051982.nc | 26-Oct-2024 22:42 | 450990 | ||
| 46017_TS_DEWT_051983.nc | 26-Oct-2024 22:42 | 451823 | ||
| 46017_TS_DEWT_051984.nc | 26-Oct-2024 22:43 | 449732 | ||
| 46017_TS_DEWT_051985.nc | 26-Oct-2024 22:43 | 450821 | ||
| 46017_TS_DEWT_051986.nc | 26-Oct-2024 22:43 | 450543 | ||
| 46017_TS_DEWT_051987.nc | 26-Oct-2024 22:43 | 451132 | ||
| 46017_TS_DEWT_051988.nc | 26-Oct-2024 22:43 | 450869 | ||
| 46017_TS_DEWT_061983.nc | 26-Oct-2024 22:43 | 451426 | ||
| 46017_TS_DEWT_061984.nc | 26-Oct-2024 22:43 | 450865 | ||
| 46017_TS_DEWT_061985.nc | 26-Oct-2024 22:43 | 465624 | ||
| 46017_TS_DEWT_061986.nc | 26-Oct-2024 22:43 | 1262614 | ||
| 46017_TS_DEWT_061987.nc | 26-Oct-2024 22:43 | 1262791 | ||
| 46017_TS_DEWT_061988.nc | 16-Sep-2024 16:51 | 1266034 | ||
| 46017_TS_DEWT_071982.nc | 26-Oct-2024 22:43 | 432328 | ||
| 46017_TS_DEWT_071983.nc | 26-Oct-2024 22:43 | 450231 | ||
| 46017_TS_DEWT_071984.nc | 26-Oct-2024 22:43 | 449382 | ||
| 46017_TS_DEWT_071985.nc | 26-Oct-2024 22:43 | 449172 | ||
| 46017_TS_DEWT_071986.nc | 26-Oct-2024 22:43 | 449101 | ||
| 46017_TS_DEWT_071987.nc | 26-Oct-2024 22:43 | 449678 | ||
| 46017_TS_DEWT_071988.nc | 16-Sep-2024 16:51 | 449678 | ||
| 46017_TS_DEWT_081982.nc | 26-Oct-2024 22:43 | 449759 | ||
| 46017_TS_DEWT_081983.nc | 26-Oct-2024 22:43 | 449400 | ||
| 46017_TS_DEWT_081984.nc | 26-Oct-2024 22:43 | 450327 | ||
| 46017_TS_DEWT_081985.nc | 26-Oct-2024 22:43 | 449320 | ||
| 46017_TS_DEWT_081986.nc | 26-Oct-2024 22:43 | 449896 | ||
| 46017_TS_DEWT_081987.nc | 26-Oct-2024 22:43 | 449430 | ||
| 46017_TS_DEWT_081988.nc | 16-Sep-2024 16:51 | 449568 | ||
| 46017_TS_DEWT_091982.nc | 26-Oct-2024 22:43 | 450315 | ||
| 46017_TS_DEWT_091983.nc | 26-Oct-2024 22:44 | 449804 | ||
| 46017_TS_DEWT_091984.nc | 26-Oct-2024 22:44 | 1108925 | ||
| 46017_TS_DEWT_091985.nc | 26-Oct-2024 22:44 | 1114782 | ||
| 46017_TS_DEWT_091986.nc | 26-Oct-2024 22:44 | 1117272 | ||
| 46017_TS_DEWT_091987.nc | 26-Oct-2024 22:44 | 1114925 | ||
| 46017_TS_DEWT_091988.nc | 16-Sep-2024 16:51 | 451383 | ||
| 46017_TS_DEWT_101982.nc | 26-Oct-2024 22:44 | 451305 | ||
| 46017_TS_DEWT_101983.nc | 26-Oct-2024 22:44 | 450260 | ||
| 46017_TS_DEWT_101984.nc | 26-Oct-2024 22:44 | 451811 | ||
| 46017_TS_DEWT_101985.nc | 26-Oct-2024 22:44 | 451501 | ||
| 46017_TS_DEWT_101986.nc | 26-Oct-2024 22:44 | 451355 | ||
| 46017_TS_DEWT_101987.nc | 26-Oct-2024 22:44 | 451696 | ||
| 46017_TS_DEWT_101988.nc | 16-Sep-2024 16:51 | 450160 | ||
| 46017_TS_DEWT_111981.nc | 26-Oct-2024 22:44 | 450808 | ||
| 46017_TS_DEWT_111982.nc | 26-Oct-2024 22:44 | 445790 | ||
| 46017_TS_DEWT_111983.nc | 26-Oct-2024 22:44 | 450348 | ||
| 46017_TS_DEWT_111984.nc | 26-Oct-2024 22:44 | 450807 | ||
| 46017_TS_DEWT_111985.nc | 26-Oct-2024 22:44 | 451112 | ||
| 46017_TS_DEWT_111986.nc | 26-Oct-2024 22:44 | 451217 | ||
| 46017_TS_DEWT_111987.nc | 26-Oct-2024 22:44 | 449896 | ||
| 46017_TS_DEWT_111988.nc | 16-Sep-2024 16:51 | 450404 | ||
| 46017_TS_DEWT_121981.nc | 26-Oct-2024 22:44 | 450753 | ||
| 46017_TS_DEWT_121982.nc | 26-Oct-2024 22:44 | 1268149 | ||
| 46017_TS_DEWT_121983.nc | 26-Oct-2024 22:45 | 1265332 | ||
| 46017_TS_DEWT_121984.nc | 26-Oct-2024 22:45 | 1271938 | ||
| 46017_TS_DEWT_121985.nc | 26-Oct-2024 22:45 | 1270973 | ||
| 46017_TS_DEWT_121986.nc | 26-Oct-2024 22:45 | 451437 | ||
| 46017_TS_DEWT_121987.nc | 26-Oct-2024 22:45 | 450943 | ||
| 46017_TS_DEWT_121988.nc | 16-Sep-2024 16:51 | 450974 | ||